FW9984 Weather Reports


time (UTC)temp
C
wind
direction
speed
KPH
gust
KPH
rain 1hr
cm
rain 24hr
cm
rain mn
cm
humidity
%
barometer
mb
20260906023101 15 0 0.0 1.6 0.00 0.33 0.00 99 1025.4
20260906021605 15 0 0.0 0.0 0.00 0.33 0.00 99 1025.0
20260906020105 15 0 0.0 0.0 0.00 0.33 0.00 99 1025.0
20260906014609 15 0 0.0 1.6 0.00 0.33 0.00 99 1024.9
20260906013103 15 0 0.0 0.0 0.00 0.33 0.00 99 1024.9
20260906011602 15 0 0.0 0.0 0.00 0.33 0.00 99 1024.7
20260906010110 15 0 0.0 0.0 0.00 0.33 0.00 99 1024.7
20260906004600 15 0 0.0 0.0 0.00 0.33 0.00 99 1024.6
20260906003110 15 312 0.0 3.2 0.00 0.33 0.00 99 1024.8
20260906001607 15 0 0.0 0.0 0.00 0.33 0.00 99 1024.7
20260906000112 15 191 0.0 0.0 0.00 0.33 0.00 99 1024.5
20260905234619 16 0 0.0 0.0 0.00 0.33 0.00 99 1024.4
20260905233119 16 0 0.0 0.0 0.00 0.33 0.00 99 1024.4
20260905231604 16 0 0.0 0.0 0.00 0.33 0.00 99 1024.3
20260905230130 16 0 0.0 0.0 0.00 0.33 0.00 99 1024.2
20260905224602 16 0 0.0 1.6 0.00 0.33 0.00 99 1024.1
20260905223101 16 148 0.0 1.6 0.00 0.33 0.00 98 1024.2
20260905221603 16 0 0.0 1.6 0.00 0.33 0.00 98 1024.2
20260905220108 16 0 0.0 1.6 0.00 0.30 0.00 98 1024.2
20260905214604 16 0 0.0 1.6 0.00 0.30 0.30 98 1024.0
20260905213101 16 0 0.0 0.0 0.00 0.30 0.30 98 1023.9
20260905211605 16 0 0.0 1.6 0.00 0.30 0.30 98 1023.7
20260905204602 16 0 0.0 0.0 0.00 0.30 0.30 97 1023.7
20260905203105 16 0 0.0 0.0 0.00 0.30 0.30 98 1023.4
20260905201608 16 0 0.0 0.0 0.00 0.30 0.30 97 1023.3
20260905200110 16 0 0.0 1.6 0.00 0.30 0.30 97 1023.4
20260905194602 16 0 0.0 0.0 0.00 0.30 0.30 97 1023.0
20260905193112 16 0 0.0 1.6 0.00 0.30 0.30 97 1022.9
20260905191600 16 0 0.0 1.6 0.00 0.30 0.30 96 1022.7
20260905190100 16 0 0.0 1.6 0.00 0.30 0.30 96 1022.4
20260905184604 16 0 0.0 0.0 0.00 0.30 0.30 96 1022.1
20260905183104 17 0 0.0 0.0 0.00 0.30 0.30 96 1022.0
20260905181601 17 0 0.0 0.0 0.00 0.30 0.30 95 1021.9
20260905180100 17 0 0.0 0.0 0.00 0.30 0.30 95 1021.6
20260905174613 18 0 0.0 0.0 0.00 0.30 0.30 93 1021.3
20260905173100 18 0 0.0 0.0 0.00 0.30 0.30 91 1021.1
20260905171607 20 0 0.0 0.0 0.00 0.30 0.30 88 1021.0
20260905170107 21 0 0.0 0.0 0.00 0.30 0.30 83 1020.8
20260905164604 23 0 0.0 0.0 0.00 0.30 0.30 79 1020.6
20260905163102 23 0 0.0 0.0 0.00 0.30 0.30 77 1020.4
20260905161602 23 0 0.0 0.0 0.00 0.30 0.30 78 1020.5
20260905160107 22 0 0.0 0.0 0.00 0.30 0.30 82 1020.4
20260905154608 21 0 0.0 1.6 0.00 0.30 0.30 84 1020.4
20260905153101 20 330 0.0 6.4 0.00 0.30 0.30 89 1020.4
20260905151601 20 78 0.0 4.8 0.00 0.30 0.30 90 1020.4
20260905150114 19 0 0.0 1.6 0.00 0.30 0.30 89 1020.5
20260905144603 20 0 0.0 1.6 0.00 0.30 0.30 89 1020.6
20260905143103 20 0 0.0 1.6 0.00 0.30 0.30 87 1020.6
20260905141607 20 0 0.0 1.6 0.00 0.30 0.30 87 1020.7
20260905134559 18 0 0.0 1.6 0.00 0.30 0.30 93 1020.9
20260905133100 18 296 0.0 4.8 0.03 0.30 0.30 93 1020.7
20260905131602 18 0 0.0 4.8 0.20 0.30 0.30 93 1020.8
20260905130101 18 0 0.0 3.2 0.30 0.30 0.30 92 1021.2
20260905124603 18 0 0.0 1.6 0.30 0.30 0.30 91 1021.3
20260905123101 18 0 0.0 1.6 0.28 0.28 0.28 88 1021.6
20260905121603 20 209 1.6 16.1 0.08 0.08 0.08 79 1021.9
20260905120106 22 310 4.8 8.0 0.00 0.00 0.00 62 1021.7
20260905114603 23 309 0.0 4.8 0.00 0.00 0.00 60 1021.3
20260905113115 23 77 1.6 6.4 0.00 0.00 0.00 60 1020.8
20260905111559 23 47 1.6 6.4 0.00 0.00 0.00 59 1020.8
20260905104602 23 76 1.6 9.7 0.00 0.00 0.00 60 1020.7
20260905103103 23 85 3.2 12.9 0.00 0.00 0.00 58 1020.9
20260905101602 25 75 4.8 11.3 0.00 0.00 0.00 56 1020.7
20260905100109 25 71 4.8 17.7 0.00 0.00 0.00 57 1020.7
20260905094603 23 113 4.8 17.7 0.00 0.00 0.00 59 1020.4
20260905093101 23 87 6.4 14.5 0.00 0.00 0.00 62 1020.3
20260905091605 23 54 6.4 19.3 0.00 0.00 0.00 62 1020.7
20260905090103 22 77 4.8 22.5 0.00 0.00 0.00 68 1020.5
20260905084602 22 28 9.7 17.7 0.00 0.00 0.00 69 1020.0
20260905083107 23 86 8.0 16.1 0.00 0.00 0.00 71 1019.9
20260905081608 23 49 6.4 16.1 0.00 0.00 0.00 71 1019.6
20260905080100 23 67 9.7 27.4 0.00 0.00 0.00 73 1019.3
20260905074600 22 327 11.3 20.9 0.00 0.00 0.00 77 1018.7
20260905073104 21 0 0.0 3.2 0.00 0.00 0.00 82 1018.1
20260905071607 21 311 0.0 3.2 0.00 0.00 0.00 83 1017.7
20260905064559 20 316 0.0 4.8 0.00 0.00 0.00 87 1017.3
20260905063107 20 0 0.0 1.6 0.00 0.00 0.00 87 1017.1
20260905061614 20 0 0.0 1.6 0.00 0.00 0.00 85 1017.0
20260905060105 18 297 0.0 3.2 0.00 0.00 0.00 90 1017.0
20260905054600 17 256 0.0 1.6 0.00 0.00 0.00 94 1016.8
20260905053100 16 0 0.0 1.6 0.00 0.00 0.00 95 1016.7
20260905051605 15 0 0.0 1.6 0.00 0.00 0.00 96 1016.3
20260905050105 15 0 0.0 0.0 0.00 0.00 0.00 96 1016.2
20260905044601 15 0 0.0 1.6 0.00 0.00 0.00 96 1016.1
20260905043107 15 0 0.0 0.0 0.00 0.00 0.00 96 1015.7
20260905041608 15 0 0.0 0.0 0.00 0.00 0.00 96 1015.4
20260905040105 15 0 0.0 0.0 0.00 0.00 0.00 96 1015.4
20260905034604 15 0 0.0 1.6 0.00 0.00 0.00 95 1015.5
20260905033108 15 0 0.0 1.6 0.00 0.00 0.00 95 1015.2
20260905031604 15 0 0.0 0.0 0.00 0.00 0.00 95 1015.3
20260905030109 15 0 0.0 0.0 0.00 0.00 0.00 95 1015.2
20260905024605 15 0 0.0 0.0 0.00 0.00 0.00 94 1015.2